Date String (YYYY-MM-DD hh:mm:ss) UTC,Instrument flags,Ambient pressure (hPa),Sample flow (lpm),Bypass flow (lpm),Sample temperature (°C),Ambient temperature (°C),ASC tube jacket temperature (°C),LED temperature (°C),Box temperature (°C),Sample RH (%),Span deviation,Mass concentration (μg/m³),Mass concentration (μg/m³),Mass concentration (μg/m³)
DateTimeUTC,F1_M11,P_M11,Q1_M11,Q2_M11,T1_M11,T2_M11,T3_M11,T4_M11,T5_M11,U1_M11,ZSPAN_M11,X0_M11,X2_M11,X1_M11
2023-04-08 12:00:00,,0829.0,4.99,0.00,22.3,20.7,00.0,30.6,23.8,11.0,0000.0,0009.96,0003.58,0002.22
2023-04-08 12:01:00,,0829.0,4.99,0.00,22.3,20.7,00.0,30.6,23.8,11.0,0000.0,0008.87,0003.55,0002.21
2023-04-08 12:02:00,,0829.0,5.01,0.00,22.3,20.6,00.0,30.6,23.8,11.0,0000.0,0008.31,0003.56,0002.22
2023-04-08 12:03:00,,0829.0,5.01,0.00,22.3,20.6,00.0,30.6,23.7,11.0,0000.0,0008.59,0003.61,0002.23
2023-04-08 12:04:00,,0829.0,5.00,0.00,22.3,20.7,00.0,30.6,23.8,11.0,0000.0,0008.99,0003.62,0002.23
2023-04-08 12:05:00,,0829.0,5.00,0.00,22.3,20.7,00.0,30.6,23.8,11.0,0000.0,0010.20,0003.63,0002.22
2023-04-08 12:06:00,,0829.0,4.99,0.00,22.3,20.7,00.0,30.6,23.8,11.0,0000.0,0010.58,0003.62,0002.20
2023-04-08 12:07:00,,0829.0,5.01,0.00,22.3,20.7,00.0,30.6,23.8,11.0,0000.0,0010.58,0003.61,0002.19
2023-04-08 12:08:00,,0829.1,5.00,0.00,22.3,20.8,00.0,30.6,23.8,10.9,0000.0,0010.47,0003.62,0002.19
2023-04-08 12:09:00,,0829.1,5.00,0.00,22.3,20.8,00.0,30.6,23.8,11.0,0000.0,0010.48,0003.59,0002.19
2023-04-08 12:10:00,,0829.1,5.01,0.00,22.3,20.8,00.0,30.6,23.8,11.0,0000.0,0010.66,0003.59,0002.18
2023-04-08 12:11:00,,0829.1,5.00,0.00,22.3,20.8,00.0,30.6,23.8,11.2,0000.0,0010.40,0003.65,0002.21
2023-04-08 12:12:00,,0829.1,5.00,0.00,22.3,20.7,00.0,30.6,23.8,11.2,0000.0,0010.44,0003.73,0002.24
2023-04-08 12:13:00,,0829.1,4.99,0.00,22.3,20.7,00.0,30.6,23.8,11.3,0000.0,0010.49,0003.76,0002.25
2023-04-08 12:14:00,,0829.0,4.99,0.00,22.3,20.8,00.0,30.6,23.9,11.1,0000.0,0010.31,0003.74,0002.25
2023-04-08 12:15:00,,0829.0,5.02,0.00,22.4,21.4,00.0,30.5,24.2,11.0,0000.0,0010.65,0003.72,0002.24
2023-04-08 12:16:00,,0829.1,5.01,0.00,22.5,22.5,00.0,30.5,24.6,10.9,0000.0,0009.74,0003.74,0002.25
2023-04-08 12:17:00,,0829.1,4.99,0.00,22.6,23.2,00.0,30.6,24.7,10.8,0000.0,0008.99,0003.73,0002.28
2023-04-08 12:18:00,,0829.1,5.00,0.00,22.7,23.0,00.0,30.7,24.6,10.8,0000.0,0009.16,0003.77,0002.30
2023-04-08 12:19:00,,0829.1,4.99,0.00,22.7,22.8,00.0,30.8,24.5,10.8,0000.0,0010.14,0003.76,0002.29
2023-04-08 12:20:00,,0829.1,5.01,0.00,22.7,22.6,00.0,30.8,24.5,10.8,0000.0,0010.42,0003.79,0002.30
2023-04-08 12:21:00,,0829.1,5.00,0.00,22.7,22.4,00.0,30.9,24.4,10.8,0000.0,0010.30,0003.79,0002.31
2023-04-08 12:22:00,,0829.1,5.00,0.00,22.8,22.2,00.0,30.9,24.4,10.7,0000.0,0010.20,0003.74,0002.29
2023-04-08 12:23:00,,0829.1,5.00,0.00,22.8,22.0,00.0,30.9,24.4,10.8,0000.0,0010.45,0003.65,0002.26
2023-04-08 12:24:00,,0829.1,5.00,0.00,22.8,21.9,00.0,30.9,24.4,10.8,0000.0,0010.43,0003.61,0002.24
2023-04-08 12:25:00,,0829.2,5.01,0.00,22.8,21.8,00.0,31.0,24.4,10.8,0000.0,0010.45,0003.59,0002.22
2023-04-08 12:26:00,,0829.1,5.00,0.00,22.8,21.7,00.0,31.0,24.4,10.8,0000.0,0009.70,0003.56,0002.20
2023-04-08 12:27:00,,0829.2,5.01,0.00,22.8,21.6,00.0,31.0,24.3,10.9,0000.0,0009.61,0003.54,0002.19
2023-04-08 12:28:00,,0829.1,4.98,0.00,22.7,21.5,00.0,31.0,24.3,10.9,0000.0,0009.65,0003.53,0002.19
2023-04-08 12:29:00,,0829.1,5.01,0.00,22.7,21.4,00.0,31.0,24.3,10.8,0000.0,0009.74,0003.57,0002.19
2023-04-08 12:30:00,,0829.2,5.02,0.00,22.8,21.4,00.0,31.0,24.3,10.9,0000.0,0009.14,0003.62,0002.22
2023-04-08 12:31:00,,0829.2,4.98,0.00,22.8,21.4,00.0,31.0,24.3,10.9,0000.0,0008.75,0003.60,0002.24
2023-04-08 12:32:00,,0829.2,5.01,0.00,22.8,21.4,00.0,31.0,24.3,10.8,0000.0,0008.81,0003.63,0002.27
2023-04-08 12:33:00,,0829.1,5.00,0.00,22.8,21.4,00.0,31.0,24.3,10.8,0000.0,0010.13,0003.69,0002.29
2023-04-08 12:34:00,,0829.1,4.99,0.00,22.8,21.4,00.0,31.0,24.3,10.8,0000.0,0011.18,0003.78,0002.30
2023-04-08 12:35:00,,0829.1,5.01,0.00,22.8,21.4,00.0,31.0,24.4,10.8,0000.0,0011.74,0003.79,0002.31
2023-04-08 12:36:00,,0829.2,5.01,0.00,22.8,21.4,00.0,31.0,24.3,10.8,0000.0,0011.94,0003.78,0002.32
2023-04-08 12:37:00,,0829.3,4.99,0.00,22.8,21.4,00.0,31.0,24.3,10.8,0000.0,0012.65,0003.80,0002.32
2023-04-08 12:38:00,,0829.2,4.99,0.00,22.8,21.4,00.0,31.0,24.3,11.0,0000.0,0012.92,0003.82,0002.33
2023-04-08 12:39:00,,0829.2,5.01,0.00,22.8,21.3,00.0,31.1,24.3,11.0,0000.0,0013.19,0003.86,0002.34
2023-04-08 12:40:00,,0829.2,5.01,0.00,22.8,21.3,00.0,31.1,24.3,10.9,0000.0,0013.27,0003.90,0002.33
2023-04-08 12:41:00,,0829.2,5.00,0.00,22.8,21.2,00.0,31.0,24.3,11.0,0000.0,0013.75,0003.90,0002.32
2023-04-08 12:42:00,,0829.2,4.99,0.00,22.8,21.2,00.0,31.0,24.3,10.9,0000.0,0014.27,0003.88,0002.30
2023-04-08 12:43:00,,0829.2,5.00,0.00,22.7,21.2,00.0,31.0,24.3,10.9,0000.0,0014.39,0003.90,0002.28
2023-04-08 12:44:00,,0829.2,5.01,0.00,22.7,21.2,00.0,31.0,24.3,10.9,0000.0,0013.32,0003.85,0002.27
2023-04-08 12:45:00,,0829.2,5.01,0.00,22.7,21.2,00.0,31.0,24.2,11.1,0000.0,0012.11,0003.81,0002.28
2023-04-08 12:46:00,,0829.2,5.00,0.00,22.7,21.2,00.0,31.0,24.2,11.3,0000.0,0012.24,0003.89,0002.30
2023-04-08 12:47:00,,0829.3,4.99,0.00,22.7,21.2,00.0,31.0,24.3,11.2,0000.0,0012.82,0003.98,0002.34
2023-04-08 12:48:00,,0829.2,5.01,0.00,22.7,21.2,00.0,31.0,24.2,11.1,0000.0,0012.79,0004.06,0002.38
2023-04-08 12:49:00,,0829.2,5.00,0.00,22.7,21.2,00.0,31.0,24.2,11.0,0000.0,0013.02,0004.06,0002.39
2023-04-08 12:50:00,,0829.2,5.00,0.00,22.7,21.2,00.0,31.0,24.2,10.9,0000.0,0012.98,0004.08,0002.39
2023-04-08 12:51:00,,0829.2,5.00,0.00,22.7,21.2,00.0,31.0,24.2,10.9,0000.0,0013.02,0004.00,0002.40
2023-04-08 12:52:00,,0829.3,5.00,0.00,22.7,21.2,00.0,31.0,24.3,10.9,0000.0,0012.98,0003.98,0002.41
2023-04-08 12:53:00,,0829.3,5.00,0.00,22.7,21.2,00.0,31.0,24.3,10.9,0000.0,0012.46,0004.00,0002.42
2023-04-08 12:54:00,,0829.3,5.00,0.00,22.7,21.2,00.0,31.0,24.3,10.9,0000.0,0012.09,0003.99,0002.44
2023-04-08 12:55:00,,0829.4,4.99,0.00,22.7,21.2,00.0,31.0,24.3,11.1,0000.0,0013.18,0004.00,0002.44
2023-04-08 12:56:00,,0829.4,4.99,0.00,22.7,21.1,00.0,31.0,24.2,11.3,0000.0,0013.40,0004.05,0002.45
2023-04-08 12:57:00,,0829.3,5.00,0.00,22.7,21.1,00.0,31.0,24.2,11.1,0000.0,0012.62,0004.01,0002.44
2023-04-08 12:58:00,,0829.4,5.01,0.00,22.7,21.1,00.0,31.0,24.2,11.1,0000.0,0012.12,0003.94,0002.42
2023-04-08 12:59:00,,0829.4,4.99,0.00,22.7,21.1,00.0,31.0,24.2,11.0,0000.0,0011.51,0003.92,0002.41
